FW4331 Weather Reports


time (UTC)temp
F
wind
direction
speed
knots
gust
knots
rain 1hr
in
rain 24hr
in
rain mn
in
humidity
%
barometer
mb
20230208164556 62 4 5.2 11.3 0.00 0.00 0.00 36 1022.9
20230208163056 62 302 2.6 7.8 0.00 0.00 0.00 37 1022.8
20230208161548 61 64 1.7 7.0 0.00 0.00 0.00 40 1022.8
20230208160051 61 346 5.2 11.3 0.00 0.00 0.00 39 1022.9
20230208153040 60 319 1.7 4.3 0.00 0.00 0.00 42 1022.6
20230208151529 57 41 1.7 3.5 0.00 0.00 0.00 43 1022.5
20230208150024 55 120 0.0 0.0 0.00 0.00 0.00 44 1022.5
20230208144519 53 190 0.0 0.0 0.00 0.00 0.00 46 1022.4
20230208143014 50 229 0.0 0.0 0.00 0.00 0.00 49 1022.3
20230208141511 49 54 0.0 0.0 0.00 0.00 0.00 52 1022.4
20230208140004 47 323 0.0 0.0 0.00 0.00 0.00 54 1022.1
20230208134500 45 243 0.0 0.0 0.00 0.00 0.00 58 1021.9
20230208133102 45 248 0.0 0.0 0.00 0.00 0.00 58 1021.6
20230208131553 45 356 0.0 0.0 0.00 0.00 0.00 58 1021.4
20230208130148 44 307 0.0 0.0 0.00 0.00 0.00 59 1021.2
20230208123103 43 229 0.0 0.0 0.00 0.00 0.00 59 1020.7
20230208121524 44 231 0.0 1.7 0.00 0.00 0.00 55 1020.6
20230208113005 45 21 0.9 4.3 0.00 0.00 0.00 55 1019.9
20230208111503 44 18 0.9 2.6 0.00 0.00 0.00 56 1019.5
20230208110100 44 264 0.0 0.0 0.00 0.00 0.00 54 1019.2
20230208104608 45 300 0.0 0.0 0.00 0.00 0.00 54 1019.2
20230208103056 45 73 0.0 0.0 0.00 0.00 0.00 53 1018.8
20230208101550 45 73 0.0 0.0 0.00 0.00 0.00 54 1018.7
20230208100056 45 122 0.0 3.5 0.00 0.00 0.00 55 1018.6
20230208094602 46 225 0.0 0.0 0.00 0.00 0.00 54 1018.7
20230208091533 46 200 0.0 0.0 0.00 0.00 0.00 53 1018.4
20230208090038 45 271 0.0 0.0 0.00 0.00 0.00 53 1018.4
20230208084505 46 273 0.0 0.0 0.00 0.00 0.00 53 1018.6
20230208083003 46 273 0.0 0.0 0.00 0.00 0.00 52 1018.1
20230208081605 46 273 0.0 0.0 0.00 0.00 0.00 53 1018.4
20230208080104 46 243 0.0 0.0 0.00 0.00 0.00 52 1018.4
20230208074522 46 191 0.0 0.9 0.00 0.00 0.00 51 1018.4
20230208073146 47 48 0.0 1.7 0.00 0.00 0.00 50 1018.6
20230208071540 47 30 1.7 4.3 0.00 0.00 0.00 50 1018.9
20230208070043 48 18 2.6 7.0 0.00 0.00 0.00 49 1018.8
20230208063103 48 10 1.7 3.5 0.00 0.00 0.00 48 1018.6
20230208061601 49 278 0.0 0.0 0.00 0.00 0.00 47 1018.1
20230208060055 50 243 0.0 1.7 0.00 0.00 0.00 46 1018.2
20230208054551 50 293 0.0 1.7 0.00 0.00 0.00 46 1018.4
20230208053048 50 279 0.0 2.6 0.00 0.00 0.00 46 1018.4
20230208051550 50 240 0.9 3.5 0.00 0.00 0.00 46 1018.3
20230208050042 50 248 0.0 4.3 0.00 0.00 0.00 46 1018.3
20230208044543 49 273 0.9 3.5 0.00 0.00 0.00 47 1018.2
20230208043041 49 267 0.9 4.3 0.00 0.00 0.00 47 1018.1
20230208034659 47 231 0.0 1.7 0.00 0.00 0.00 49 1018.3
20230208031656 47 279 0.0 1.7 0.00 0.00 0.00 49 1018.6
20230208030020 46 336 0.0 0.0 0.00 0.00 0.00 51 1019.1
20230208024519 46 224 0.0 0.9 0.00 0.00 0.00 50 1018.9
20230208023017 46 243 0.0 1.7 0.00 0.00 0.00 50 1019.1
20230208021526 46 262 0.9 1.7 0.00 0.00 0.00 50 1019.4
20230208014541 46 225 0.9 2.6 0.00 0.00 0.00 50 1019.0
20230208013112 47 219 0.0 2.6 0.00 0.00 0.00 48 1019.2
20230208011552 47 200 0.9 2.6 0.00 0.00 0.00 47 1019.3
20230208010051 48 174 0.0 0.9 0.00 0.00 0.00 46 1019.5
20230208004546 48 190 0.0 1.7 0.00 0.00 0.00 46 1019.7
20230208003058 48 165 0.0 0.9 0.00 0.00 0.00 46 1019.7
20230208001544 48 194 0.9 2.6 0.00 0.00 0.00 45 1019.7
20230208000042 49 195 0.9 2.6 0.00 0.00 0.00 45 1019.9
20230207234539 49 245 0.0 3.5 0.00 0.00 0.00 44 1019.9
20230207233038 49 186 1.7 4.3 0.00 0.00 0.00 43 1019.8
20230207231536 50 200 1.7 3.5 0.00 0.00 0.00 43 1019.9
20230207230130 50 190 1.7 7.0 0.00 0.00 0.00 42 1019.9
20230207224523 50 199 1.7 4.3 0.00 0.00 0.00 42 1020.1
20230207220041 51 219 3.5 8.7 0.00 0.00 0.00 40 1020.1
20230207214503 51 208 2.6 7.0 0.00 0.00 0.00 41 1020.2
20230207213103 51 200 4.3 8.7 0.00 0.00 0.00 40 1020.2
20230207211558 51 247 4.3 10.4 0.00 0.00 0.00 40 1020.4
20230207210155 51 248 4.3 9.6 0.00 0.00 0.00 39 1020.5
20230207204555 51 205 5.2 11.3 0.00 0.00 0.00 39 1020.8
20230207203049 52 219 6.1 10.4 0.00 0.00 0.00 39 1021.1
20230207201546 51 175 3.5 10.4 0.00 0.00 0.00 39 1021.1
20230207200043 51 176 4.3 9.6 0.00 0.00 0.00 39 1021.1
20230207194545 51 216 4.3 9.6 0.00 0.00 0.00 39 1021.3
20230207193034 51 147 4.3 8.7 0.00 0.00 0.00 39 1021.5
20230207191554 50 285 7.0 11.3 0.00 0.00 0.00 40 1021.6
20230207190052 50 226 4.3 10.4 0.00 0.00 0.00 40 1022.2
20230207184517 50 214 6.1 11.3 0.00 0.00 0.00 40 1022.4
20230207183016 49 226 4.3 9.6 0.00 0.00 0.00 42 1022.9
20230207181511 50 226 4.3 11.3 0.00 0.00 0.00 41 1023.0
20230207180004 49 229 5.2 8.7 0.00 0.00 0.00 42 1023.0
20230207173140 47 245 4.3 9.6 0.00 0.00 0.00 44 1024.0
20230207170025 45 231 7.0 11.3 0.00 0.00 0.00 46 1024.5